Location: Newark
(33.6439°N, 114.9881°W)
Time: 20:46:24
(UTC+00:00)

Transit 2A Rocket - Pass Details

Date: 30 August 2019
Orbit: 592 x 911 km, 66.7° (Epoch: 22 September)

Event Time Altitude Azimuth Distance (km) Brightness Sun altitude
Rises 02:23:03 0° 260° (W) 3,418 9.8 -3.6°
Reaches altitude 10° 02:27:37 10° 292° (WNW) 2,410 9.4 -4.5°
Maximum altitude 02:29:21 11° 311° (NW) 2,281 8.6 -4.9°
Drops below altitude 10° 02:31:03 10° 330° (NNW) 2,346 8.3 -5.2°
Sets 02:35:20 0° 3° (N) 3,185 8.4 -6.1°
